datetime,inflow volume
1967-01-02,200.00331
1967-01-03,199.00331
1967-01-04,200.00331
1967-01-05,254.00331
1967-01-06,254.00331
1967-01-07,255.00331
1967-01-08,256.00331
1967-01-09,201.00331
1967-01-10,256.00331
1967-01-11,257.00331
1967-01-12,257.00331
1967-01-13,258.00331
1967-01-14,203.00331
1967-01-15,260.00331
1967-01-16,260.114646
1967-01-17,205.114977
1967-01-18,262.227528
1967-01-19,206.34063
1967-01-20,264.341956
1967-01-21,264.456602
1967-01-22,265.572135
1967-01-23,266.688546
1967-01-24,267.691198
1967-01-25,325.80971
1967-01-26,211.927558
1967-01-27,270.931094
1967-01-28,271.051036
1967-01-29,214.17077
1967-01-30,273.17518
1967-01-31,274.297229
1967-02-01,274.30208
1967-02-02,276.425454
1967-02-03,276.549712
1967-02-04,218.554015
1967-02-05,278.679474
1967-02-06,219.80418
1967-02-07,279.810795
1967-02-08,220.93563
1967-02-09,222.058916
1967-02-10,342.063132
1967-02-11,161.186098
1967-02-12,283.311126
1967-02-13,222.43557
1967-02-14,162.43755
1967-02-15,162.561341
1967-02-16,162.56342
1967-02-17,101.68643
1967-02-18,101.68753
1967-02-19,162.811817
1967-02-20,101.812944
1967-02-21,40.935102
1967-02-22,101.936302
1967-02-23,102.05976
1967-02-24,163.062235
1967-02-25,164.187166
1967-02-26,102.188466
1967-02-27,102.312295
1967-02-28,103.313645
1967-03-01,102.560276
1967-03-02,225.564597
1967-03-03,164.69037
1967-03-04,102.69187
1967-03-05,103.816372
1967-03-06,102.817891
1967-03-07,103.819441
1967-03-08,164.94571
1967-03-09,103.94731
1967-03-10,103.072177
1967-03-11,166.075444
1967-03-12,103.200542
1967-03-13,104.202242
1967-03-14,166.329205
1967-03-15,165.33267
1967-03-16,166.45993
1967-03-17,186.580768
1967-03-18,189.703512
1967-03-19,313.711036
1967-03-20,251.841039
1967-03-21,190.96934
1967-03-22,253.099889
1967-03-23,315.108007
1967-03-24,253.239052
1967-03-25,182.383115
1967-03-26,241.508096
1967-03-27,178.512452
1967-03-28,178.64219
1967-03-29,179.772172
1967-03-30,304.90696
1967-03-31,180.041712
1967-04-01,243.055296
1967-04-02,180.064368
1967-04-03,180.19997
1967-04-04,181.3359
1967-04-05,244.477102
1967-04-06,270.483275
1967-04-07,288.635186
1967-04-08,225.772771
1967-04-09,225.910734
1967-04-10,161.91581
1967-04-11,226.054245
1967-04-12,230.199668
1967-04-13,231.338802
1967-04-14,359.360348
1967-04-15,203.493684
1967-04-16,268.639554
1967-04-17,280.76713
1967-04-18,294.911614
1967-04-19,142.914914
1967-04-20,188.057186
1967-04-21,241.199021
1967-04-22,178.338464
1967-04-23,223.46774
1967-04-24,279.489435
1967-04-25,214.632592
1967-04-26,190.779682
1967-04-27,201.913798
1967-04-28,213.051345
1967-04-29,166.041435
1967-04-30,232.17924
1967-05-01,
1967-05-02,232.455276
1967-05-03,192.606869
1967-05-04,243.749078
1967-05-05,284.74977
1967-05-06,506.905775
1967-05-07,227.019666
1967-05-08,294.136929
1967-05-09,359.261224
1967-05-10,369.248004
1967-05-11,670.430045
1967-05-12,909.60237
1967-05-13,589.733291
1967-05-14,446.859804
1967-05-15,448.853194
1967-05-16,440.992281
1967-05-17,440.992281
1967-05-18,312.135684
1967-05-19,648.352085
1967-05-20,921.45638
1967-05-21,928.655794
1967-05-22,1017.69601
1967-05-23,1176.88829
1967-05-24,1386.95711
1967-05-25,1327.16056
1967-05-26,1472.23377
1967-05-27,1343.50532
1967-05-28,1429.6649
1967-05-29,1302.95174
1967-05-30,1868.14032
1967-05-31,1628.40165
1967-06-01,1490.45354
1967-06-02,1403.49649
1967-06-03,1147.6488
1967-06-04,1029.65328
1967-06-05,1104.80181
1967-06-06,1179.95927
1967-06-07,1282.96703
1967-06-08,1090.10526
1967-06-09,914.088955
1967-06-10,1053.2408
1967-06-11,1063.23749
1967-06-12,1333.39594
1967-06-13,1461.38351
1967-06-14,1387.51342
1967-06-15,1676.49855
1967-06-16,1416.60938
1967-06-17,2003.59842
1967-06-18,2275.5885
1967-06-19,2369.7589
1967-06-20,3027.78348
1967-06-21,4074.81084
1967-06-22,4100.9513
1967-06-23,4392.96409
1967-06-24,4711.12095
1967-06-25,4210.10994
1967-06-26,3620.08107
1967-06-27,3814.25228
1967-06-28,3679.26196
1967-06-29,3560.28321
1967-06-30,2728.40094
1967-07-01,2069.39782
1967-07-02,2295.44209
1967-07-03,2376.62389
1967-07-04,2117.61893
1967-07-05,1588.7546
1967-07-06,1423.77113
1967-07-07,1089.72626
1967-07-08,1143.86127
1967-07-09,912.80721
1967-07-10,821.728085
1967-07-11,987.793892
1967-07-12,1119.73772
1967-07-13,1379.72061
1967-07-14,1210.81696
1967-07-15,1142.78237
1967-07-16,1234.76012
1967-07-17,1114.58668
1967-07-18,1261.61866
1967-07-19,630.396568
1967-07-20,551.317295
1967-07-21,606.07073
1967-07-22,528.973976
1967-07-23,453.726835
1967-07-24,616.64095
1967-07-25,498.445308
1967-07-26,520.399802
1967-07-27,504.371408
1967-07-28,387.175016
1967-07-29,335.119396
1967-07-30,294.917052
1967-07-31,306.874424
1967-08-01,424.838602
1967-08-02,339.644056
1967-08-03,376.544415
1967-08-04,360.30006
1967-08-05,242.18893
1967-08-06,293.948068
1967-08-07,269.825981
1967-08-08,237.590168
1967-08-09,327.481834
1967-08-10,329.252625
1967-08-11,295.152024
1967-08-12,194.948558
1967-08-13,220.891854
1967-08-14,308.703275
1967-08-15,190.632595
1967-08-16,276.43805
1967-08-17,230.243648
1967-08-18,95.013634
1967-08-19,294.759802
1967-08-20,186.609106
1967-08-21,199.34321
1967-08-22,211.080626
1967-08-23,243.834574
1967-08-24,216.547817
1967-08-25,284.344926
1967-08-26,237.15278
1967-08-27,215.964242
1967-08-28,235.790663
1967-08-29,295.718951
1967-08-30,275.546022
1967-08-31,309.349018
1967-09-01,300.202591
1967-09-02,313.95982
1967-09-03,276.713892
1967-09-04,289.478186
1967-09-05,304.246012
1967-09-06,361.04235
1967-09-07,452.91766
1967-09-08,396.90403
1967-09-09,474.794432
1967-09-10,445.695155
1967-09-11,519.603486
1967-09-12,404.499617
1967-09-13,379.3976
1967-09-14,503.308678
1967-09-15,496.213282
1967-09-16,484.122284
1967-09-17,410.012052
1967-09-18,403.009818
1967-09-19,418.89669
1967-09-20,464.813646
1967-09-21,321.692186
1967-09-22,349.594856
1967-09-23,348.495975
1967-09-24,457.38987
1967-09-25,368.29855
1967-09-26,486.208338
1967-09-27,430.117685
1967-09-28,421.009054
1967-09-29,413.92051
1967-09-30,396.909455
1967-10-01,366.806194
1967-10-02,413.715418
1967-10-03,516.648106
1967-10-04,506.543992
1967-10-05,373.44472
1967-10-06,462.355495
1967-10-07,425.274738
1967-10-08,434.174396
1967-10-09,433.08086
1967-10-10,441.980865
1967-10-11,410.886676
1967-10-12,466.879702
1967-10-13,421.778536
1967-10-14,317.682148
1967-10-15,382.599359
1967-10-16,470.51949
1967-10-17,360.424383
1967-10-18,368.413951
1967-10-19,325.318716
1967-10-20,330.233785
1967-10-21,331.226496
1967-10-22,331.132282
1967-10-23,325.028515
1967-10-24,324.935052
1967-10-25,309.921734
1967-10-26,346.842049
1967-10-27,303.749472
1967-10-28,303.743168
1967-10-29,
1967-10-30,
1967-10-31,224.55665
1967-11-01,212.5445
1967-11-02,211.450853
1967-11-03,212.357796
1967-11-04,213.265302
1967-11-05,213.257337
1967-11-06,213.165756
1967-11-07,214.074765
1967-11-08,173.064915
1967-11-09,213.974908
1967-11-10,237.882181
1967-11-11,209.876429
1967-11-12,211.78584
1967-11-13,252.698074
1967-11-14,212.689821
1967-11-15,253.60306
1967-11-16,165.519756
1967-11-17,206.43259
1967-11-18,207.430466
1967-11-19,167.348388
1967-11-20,215.26046
1967-11-21,269.262336
1967-11-22,230.18136
1967-11-23,230.17959
1967-11-24,230.098954
1967-11-25,231.018569
1967-11-26,158.006335
1967-11-27,179.942186
1967-11-28,220.86218
1967-11-29,174.850312
1967-11-30,214.77078
1967-12-01,409.692876
1967-12-02,409.692876
1967-12-03,479.622054
1967-12-04,479.544504
1967-12-05,479.544924
1967-12-06,479.467196
1967-12-07,480.38935
1967-12-08,479.389645
1967-12-09,479.311622
1967-12-10,479.233484
1967-12-11,480.233661
1967-12-12,479.155342
1967-12-13,480.076905
1967-12-14,479.076964
1967-12-15,479.99835
1967-12-16,379.00165
1967-12-17,443.99835
1967-12-18,442.99835
1967-12-19,443.99835
1967-12-20,443.99835
1967-12-21,443.99835
1967-12-22,443.99835
1967-12-23,451.99174
1967-12-24,479.99835
1967-12-25,479.99835
1967-12-26,480.99835
1967-12-27,471.98512
1967-12-28,471.98512
1967-12-29,472.98512
1967-12-30,471.98512
1967-12-31,472.98512
1968-01-01,392.98512
1968-01-02,591.98512
1968-01-03,592.98512
1968-01-04,553.98512
1968-01-05,554.98512
1968-01-06,570.99174
1968-01-07,578.00165
1968-01-08,579.00165
1968-01-09,498.00165
1968-01-10,497.00165
1968-01-11,540.00165
1968-01-12,539.00165
1968-01-13,540.00165
1968-01-14,576.99174
1968-01-15,576.99174
1968-01-16,620.076537
1968-01-17,537.076832
1968-01-18,536.162514
1968-01-19,581.249083
1968-01-20,538.249968
1968-01-21,538.337224
1968-01-22,582.425565
1968-01-23,583.514688
1968-01-24,554.526962
1968-01-25,277.609835
1968-01-26,191.694046
1968-01-27,105.689318
1968-01-28,230.763114
1968-01-29,144.84427
1968-01-30,103.83837
1968-01-31,105.916863
1968-02-01,-20.08085
1968-02-02,165.01497
1968-02-03,420.11078
1968-02-04,425.122298
1968-02-05,471.22215
1968-02-06,345.319545
1968-02-07,392.33135
1968-02-08,395.432478
1968-02-09,397.528584
1968-02-10,398.53314
1968-02-11,400.627972
1968-02-12,400.723342
1968-02-13,447.81991
1968-02-14,403.82529
1968-02-15,359.921324
1968-02-16,404.926973
1968-02-17,407.024494
1968-02-18,408.030412
1968-02-19,409.12874
1968-02-20,411.134904
1968-02-21,551.245678
1968-02-22,604.277478
1968-02-23,565.402585
1968-02-24,620.43571
1968-02-25,529.56171
1968-02-26,485.587554
1968-02-27,490.713759
1968-02-28,544.743567
1968-02-29,448.869782
1968-03-01,451.997792
1968-03-02,456.020325
1968-03-03,458.13819
1968-03-04,460.15202
1968-03-05,462.271268
1968-03-06,467.272298
1968-03-07,476.296509
1968-03-08,424.415744
1968-03-09,532.432352
1968-03-10,427.552912
1968-03-11,429.566211
1968-03-12,430.68798
1968-03-13,540.705626
1968-03-14,380.83
1968-03-15,677.82392
1968-03-16,515.94187
1968-03-17,406.047295
1968-03-18,500.15025
1968-03-19,486.14694
1968-03-20,478.263115
1968-03-21,470.37929
1968-03-22,470.488855
1968-03-23,416.486477
1968-03-24,419.600944
1968-03-25,458.698866
1968-03-26,478.843794
1968-03-27,545.868082
1968-03-28,498.988615
1968-03-29,450.116596
1968-03-30,421.262256
1968-03-31,567.417006
1968-04-01,556.477938
1968-04-02,733.54149
1968-04-03,799.727164
1968-04-04,572.89356
1968-04-05,460.050722
1968-04-06,522.095755
1968-04-07,405.249626
1968-04-08,514.406717
1968-04-09,494.552274
1968-04-10,434.559442
1968-04-11,495.11606
1968-04-12,569.846476
1968-04-13,717.008264
1968-04-14,598.033686
1968-04-15,599.18301
1968-04-16,601.333169
1968-04-17,666.48722
1968-04-18,605.639274
1968-04-19,482.660441
1968-04-20,632.828034
1968-04-21,640.986544
1968-04-22,650.1319
1968-04-23,622.28035
1968-04-24,559.298745
1968-04-25,623.451544
1968-04-26,666.614952
1968-04-27,572.74484
1968-04-28,638.893162
1968-04-29,567.924328
1968-04-30,561.08838
1968-05-01,658.268384
1968-05-02,798.450158
1968-05-03,868.650414
1968-05-04,879.862478
1968-05-05,951.93929
1968-05-06,1160.15291
1968-05-07,1609.32273
1968-05-08,1145.4535
1968-05-09,1145.59269
1968-05-10,1213.59916
1968-05-11,1328.7434
1968-05-12,1360.87792
1968-05-13,1360.01748
1968-05-14,1360.15705
1968-05-15,1595.16235
1968-05-16,1419.29523
1968-05-17,1222.28338
1968-05-18,1285.43802
1968-05-19,1183.55778
1968-05-20,1251.56126
1968-05-21,1485.71991
1968-05-22,2027.72489
1968-05-23,2032.88038
1968-05-24,2713.89185
1968-05-25,1989.02116
1968-05-26,1924.01124
1968-05-27,1386.14238
1968-05-28,1441.18192
1968-05-29,1642.38512
1968-05-30,2052.44261
1968-05-31,2715.63553
1968-06-01,2831.73228
1968-06-02,3019.82713
1968-06-03,2351.04748
1968-06-04,2798.18182
1968-06-05,3542.49441
1968-06-06,3374.70768
1968-06-07,3206.70107
1968-06-08,3238.83765
1968-06-09,3048.8025
1968-06-10,3167.95324
1968-06-11,2592.96482
1968-06-12,2263.16797
1968-06-13,2829.28454
1968-06-14,3055.52133
1968-06-15,1060.5276
1968-06-16,1426.75244
1968-06-17,1250.74687
1968-06-18,1308.67978
1968-06-19,2421.76458
1968-06-20,2643.74568
1968-06-21,3300.79453
1968-06-22,3232.97321
1968-06-23,2950.96495
1968-06-24,2985.13638
1968-06-25,2911.13638
1968-06-26,2619.12349
1968-06-27,2003.26729
1968-06-28,2118.29502
1968-06-29,1556.27555
1968-06-30,1437.43231
1968-07-01,1637.47482
1968-07-02,1306.45683
1968-07-03,960.53634
1968-07-04,876.45696
1968-07-05,841.514364
1968-07-06,942.422764
1968-07-07,981.364268
1968-07-08,1129.4589
1968-07-09,1022.39823
1968-07-10,988.337666
1968-07-11,882.401536
1968-07-12,957.340408
1968-07-13,861.266968
1968-07-14,718.32462
1968-07-15,907.262926
1968-07-16,862.190877
1968-07-17,479.969212
1968-07-18,391.909666
1968-07-19,292.707916
1968-07-20,297.641148
1968-07-21,295.447276
1968-07-22,209.384442
1968-07-23,358.1885
1968-07-24,309.07195
1968-07-25,250.79051
1968-07-26,304.656332
1968-07-27,314.518948
1968-07-28,258.242983
1968-07-29,205.08735
1968-07-30,353.822108
1968-07-31,247.732042
1968-08-01,241.651054
1968-08-02,216.453278
1968-08-03,178.359965
1968-08-04,326.17451
1968-08-05,268.10671
1968-08-06,352.93971
1968-08-07,311.778396
1968-08-08,271.496064
1968-08-09,158.321346
1968-08-10,309.075529
1968-08-11,326.943694
1968-08-12,449.722428
1968-08-13,465.602478
1968-08-14,378.37957
1968-08-15,354.330265
1968-08-16,510.199222
1968-08-17,451.070839
1968-08-18,516.97263
1968-08-19,763.895646
1968-08-20,739.916576
1968-08-21,600.80918
1968-08-22,561.681841
1968-08-23,732.607906
1968-08-24,661.502139
1968-08-25,600.392862
1968-08-26,595.281965
1968-08-27,538.153254
1968-08-28,436.013694
1968-08-29,484.001214
1968-08-30,517.870516
1968-08-31,410.719584
1968-09-01,385.703461
1968-09-02,422.55846
1968-09-03,459.42398
1968-09-04,389.289482
1968-09-05,443.152112
1968-09-06,442.988628
1968-09-07,617.835295
1968-09-08,248.721145
1968-09-09,217.446466
1968-09-10,192.16832
1968-09-11,101.87417
1968-09-12,123.593641
1968-09-13,-67.57162
1968-09-14,124.317993
1968-09-15,47.184228
1968-09-16,439.061909
1968-09-17,306.967116
1968-09-18,289.93503
1968-09-19,274.832975
1968-09-20,239.713362
1968-09-21,336.578609
1968-09-22,387.478668
1968-09-23,372.359746
1968-09-24,342.24651
1968-09-25,407.150635
1968-09-26,430.048554
1968-09-27,429.950224
1968-09-28,429.85223
1968-09-29,429.75463
1968-09-30,305.745445
1968-10-01,442.72378
1968-10-02,447.886927
1968-10-03,452.044796
1968-10-04,454.979239
1968-10-05,455.7079
1968-10-06,277.627624
1968-10-07,368.55021
1968-10-08,369.472258
1968-10-09,370.393768
1968-10-10,462.516105
1968-10-11,465.43942
1968-10-12,465.255854
1968-10-13,468.376511
1968-10-14,284.292476
1968-10-15,284.20808
1968-10-16,379.15052
1968-10-17,383.091194
1968-10-18,386.12567
1968-10-19,487.468782
1968-10-20,297.396642
1968-10-21,397.429313
1968-10-22,499.370878
1968-10-23,506.310235
1968-10-24,510.247384
1968-10-25,516.48327
1968-10-26,522.218757
1968-10-27,527.136882
1968-10-28,529.155314
1968-10-29,532.068213
1968-10-30,534.97996
1968-10-31,218.98686
1968-11-01,218.99379
1968-11-02,432.90056
1968-11-03,434.806438
1968-11-04,436.711394
1968-11-05,383.722275
1968-11-06,440.625906
1968-11-07,386.725515
1968-11-08,388.73559
1968-11-09,390.444898
1968-11-10,448.354888
1968-11-11,340.370114
1968-11-12,398.275232
1968-11-13,457.181114
1968-11-14,404.197347
1968-11-15,348.89793
1968-11-16,466.799728
1968-11-17,469.699778
1968-11-18,414.515324
1968-11-19,416.410947
1968-11-20,420.305024
1968-11-21,482.319152
1968-11-22,304.207485
1968-11-23,427.21452
1968-11-24,428.09841
1968-11-25,428.981606
1968-11-26,369.98548
1968-11-27,430.867684
1968-11-28,371.748655
1968-11-29,432.752472
1968-11-30,373.6325
1968-12-01,373.511923
1968-12-02,436.515046
1968-12-03,437.790626
1968-12-04,314.66812
1968-12-05,439.670549
1968-12-06,378.150804
1968-12-07,378.82881
1968-12-08,379.23548
1968-12-09,380.508674
1968-12-10,446.177696
1968-12-11,449.576376
1968-12-12,323.449658
1968-12-13,388.322091
1968-12-14,390.322657
1968-12-15,392.19339
1968-12-16,458.19339
1968-12-17,396.39174
1968-12-18,548.98843
1968-12-19,539.99174
1968-12-20,408.99174
1968-12-21,363.99669
1968-12-22,381.00331
1968-12-23,380.00331
1968-12-24,446.00331
1968-12-25,446.00331
1968-12-26,446.00331
1968-12-27,371.99008
1968-12-28,451.99339
1968-12-29,468.0
1968-12-30,402.0
1968-12-31,386.99339
1969-01-01,380.00331
1969-01-02,446.00331
1969-01-03,381.00331
1969-01-04,385.99339
1969-01-05,386.99339
1969-01-06,385.99339
1969-01-07,451.99339
1969-01-08,386.99339
1969-01-09,385.99339
1969-01-10,321.99339
1969-01-11,386.99339
1969-01-12,386.99339
1969-01-13,381.00331
1969-01-14,511.00331
1969-01-15,631.99669
1969-01-16,421.118641
1969-01-17,316.133332
1969-01-18,387.255084
1969-01-19,387.385106
1969-01-20,523.375753
1969-01-21,539.51334
1969-01-22,666.646335
1969-01-23,558.771394
1969-01-24,233.767998
1969-01-25,363.89528
1969-01-26,523.029936
1969-01-27,614.024216
1969-01-28,485.150936
1969-01-29,357.2752
1969-01-30,487.27237
1969-01-31,423.396441
1969-02-01,218.394559
1969-02-02,469.528548
1969-02-03,405.654705
1969-02-04,397.64025
1969-02-05,376.769424
1969-02-06,352.90668
1969-02-07,529.9062
1969-02-08,354.035186
1969-02-09,368.155724
1969-02-10,440.149114
1969-02-11,448.289346
1969-02-12,385.414543
1969-02-13,470.53814
1969-02-14,422.52304
1969-02-15,370.642574
1969-02-16,456.6406
1969-02-17,402.776192
1969-02-18,402.772034
1969-02-19,402.893839
1969-02-20,427.881232
1969-02-21,618.0064
1969-02-22,380.005858
1969-02-23,382.123815
1969-02-24,444.117615
1969-02-25,218.236004
1969-02-26,812.211376
1969-02-27,617.320675
1969-02-28,810.313566
1969-03-01,250.529944
1969-03-02,856.51556
1969-03-03,616.61665
1969-03-04,621.58851
1969-03-05,500.654042
1969-03-06,514.599296
1969-03-07,643.55137
1969-03-08,540.610058
1969-03-09,1177.57185
1969-03-10,1042.62379
1969-03-11,821.554822
1969-03-12,835.620584
1969-03-13,743.573596
1969-03-14,655.62739
1969-03-15,676.552805
1969-03-16,791.566656
1969-03-17,706.566985
1969-03-18,826.555128
1969-03-19,841.480312
1969-03-20,842.557952
1969-03-21,809.60749
1969-03-22,714.659318
1969-03-23,905.61307
1969-03-24,724.607752
1969-03-25,828.58103
1969-03-26,436.514506
1969-03-27,1262.48255
1969-03-28,950.53277
1969-03-29,223.57406
1969-03-30,1284.67915
1969-03-31,1287.77328
1969-04-01,1418.78989
1969-04-02,1383.81427
1969-04-03,1910.04209
1969-04-04,1708.23967
1969-04-05,1149.38826
1969-04-06,1161.43184
1969-04-07,1166.57016
1969-04-08,861.673994
1969-04-09,782.764414
1969-04-10,738.764414
1969-04-11,1004.8854
1969-04-12,1097.00409
1969-04-13,1198.1096
1969-04-14,1165.14339
1969-04-15,1166.2512
1969-04-16,1122.35767
1969-04-17,941.45657
1969-04-18,895.553729
1969-04-19,896.55989
1969-04-20,942.659398
1969-04-21,1593.78555
1969-04-22,1887.92582
1969-04-23,2288.2282
1969-04-24,2650.50253
1969-04-25,2834.8733
1969-04-26,2577.10875
1969-04-27,2071.30895
1969-04-28,1880.49273
1969-04-29,2002.60203
1969-04-30,1922.86362
1969-05-01,1946.13294
1969-05-02,2234.42093
1969-05-03,2638.64602
1969-05-04,2429.80383
1969-05-05,2650.89214
1969-05-06,2637.04576
1969-05-07,2301.21284
1969-05-08,3208.44801
1969-05-09,3083.6688
1969-05-10,2964.72192
1969-05-11,2789.9139
1969-05-12,3086.15892
1969-05-13,2782.33753
1969-05-14,2755.52703
1969-05-15,2866.57572
1969-05-16,2870.76784
1969-05-17,2480.78353
1969-05-18,2350.91393
1969-05-19,2074.0526
1969-05-20,1448.04976
1969-05-21,1063.17197
1969-05-22,1575.27107
1969-05-23,1241.52715
1969-05-24,1888.74065
1969-05-25,2053.97421
1969-05-26,1932.06933
1969-05-27,1975.30953
1969-05-28,2057.41439
1969-05-29,2163.73749
1969-05-30,1899.8904
1969-05-31,1694.13898
1969-06-01,2076.3069
1969-06-02,1874.40893
1969-06-03,1221.59295
1969-06-04,993.60617
1969-06-05,737.705761
1969-06-06,678.81791
1969-06-07,866.806754
1969-06-08,730.914555
1969-06-09,876.8966
1969-06-10,701.016782
1969-06-11,767.985418
1969-06-12,740.114623
1969-06-13,812.105505
1969-06-14,667.223376
1969-06-15,875.226676
1969-06-16,865.40218
1969-06-17,919.461623
1969-06-18,1281.56883
1969-06-19,903.78091
1969-06-20,777.79154
1969-06-21,692.78658
1969-06-22,655.942815
1969-06-23,747.942389
1969-06-24,795.108398
1969-06-25,1917.21064
1969-06-26,2488.26792
1969-06-27,846.359928
1969-06-28,1312.34836
1969-06-29,1174.34364
1969-06-30,1207.50275
1969-07-01,1020.49462
1969-07-02,999.492828
1969-07-03,1129.65685
1969-07-04,915.6338
1969-07-05,776.73953
1969-07-06,809.712682
1969-07-07,672.649376
1969-07-08,673.73659
1969-07-09,883.687884
1969-07-10,1072.65925
1969-07-11,1166.77878
1969-07-12,791.710702
1969-07-13,1156.69029
1969-07-14,1157.81531
1969-07-15,1125.79305
1969-07-16,1167.7708
1969-07-17,1168.60544
1969-07-18,1601.64626
1969-07-19,1739.565
1969-07-20,1635.61385
1969-07-21,1638.51771
1969-07-22,1785.58777
1969-07-23,1197.4306
1969-07-24,538.33148
1969-07-25,229.051036
1969-07-26,176.910238
1969-07-27,192.780116
1969-07-28,369.517164
1969-07-29,287.377688
1969-07-30,422.15461
1969-07-31,608.124056
1969-08-01,294.078016
1969-08-02,376.890351
1969-08-03,250.83241
1969-08-04,240.64861
1969-08-05,390.60371
1969-08-06,415.423733
1969-08-07,320.362805
1969-08-08,259.104276
1969-08-09,124.946986
1969-08-10,238.687172
1969-08-11,142.530782
1969-08-12,350.300828
1969-08-13,284.19206
1969-08-14,301.95402
1969-08-15,419.878745
1969-08-16,329.698146
1969-08-17,209.499715
1969-08-18,174.293044
1969-08-19,334.112997
1969-08-20,410.062572
1969-08-21,311.86848
1969-08-22,316.642353
1969-08-23,230.36371
1969-08-24,361.111225
1969-08-25,339.868364
1969-08-26,227.598315
1969-08-27,333.361848
1969-08-28,282.118636
1969-08-29,291.034142
1969-08-30,338.868866
1969-08-31,236.685886
1969-09-01,280.61234
1969-09-02,224.44121
1969-09-03,336.280858
1969-09-04,340.121888
1969-09-05,363.961196
1969-09-06,367.735338
1969-09-07,289.50088
1969-09-08,252.36182
1969-09-09,312.16219
1969-09-10,386.96661
1969-09-11,317.777182
1969-09-12,407.607682
1969-09-13,310.46789
1969-09-14,408.341558
1969-09-15,308.22291
1969-09-16,366.100794
1969-09-17,267.981616
1969-09-18,351.969888
1969-09-19,334.839945
1969-09-20,287.720718
1969-09-21,232.59598
1969-09-22,463.463798
1969-09-23,350.320842
1969-09-24,334.19598
1969-09-25,381.068564
1969-09-26,389.935916
1969-09-27,361.80237
1969-09-28,391.680308
1969-09-29,386.55982
1969-09-30,243.484945
1969-10-01,357.367212
1969-10-02,340.259791
1969-10-03,237.148968
1969-10-04,417.080512
1969-10-05,417.00524
1969-10-06,396.91835
1969-10-07,436.842832
1969-10-08,452.773689
1969-10-09,425.704792
1969-10-10,466.62878
1969-10-11,546.561194
1969-10-12,418.559534
1969-10-13,471.480534
1969-10-14,552.415982
1969-10-15,486.345918
1969-10-16,499.27545
1969-10-17,830.231981
1969-10-18,584.247308
1969-10-19,585.179058
1969-10-20,586.11002
1969-10-21,502.117272
1969-10-22,502.040158
1969-10-23,502.96265
1969-10-24,501.884748
1969-10-25,502.891446
1969-10-26,377.81458
1969-10-27,281.741682
1969-10-28,524.174524
1969-10-29,529.735712
1969-10-30,537.2863
1969-10-31,452.30028
1969-11-01,544.31237
1969-11-02,455.231922
1969-11-03,458.349152
1969-11-04,459.46571
1969-11-05,552.476591
1969-11-06,463.393724
1969-11-07,373.50685
1969-11-08,512.5161
1969-11-09,421.43077
1969-11-10,471.363282
1969-11-11,477.388674
1969-11-12,482.317874
1969-11-13,391.240225
1969-11-14,492.263409
1969-11-15,398.18289
1969-11-16,502.303154
1969-11-17,508.22286
1969-11-18,411.238772
1969-11-19,517.155386
1969-11-20,419.06456
1969-11-21,421.071936
1969-11-22,527.97608
1969-11-23,424.982995
1969-11-24,478.473996
1969-11-25,628.382562
1969-11-26,447.384222
1969-11-27,447.277998
1969-11-28,447.171774
1969-11-29,447.171774
1969-11-30,341.0644
1969-12-01,446.958291
1969-12-02,446.958291
1969-12-03,446.852182
1969-12-04,446.746073
1969-12-05,446.746073
1969-12-06,385.626386
1969-12-07,438.520335
1969-12-08,438.520335
1969-12-09,362.425626
1969-12-10,419.310067
1969-12-11,419.310412
1969-12-12,426.214328
1969-12-13,425.108104
1969-12-14,426.10822
1969-12-15,425.00165
1969-12-16,426.00165
1969-12-17,431.99174
1969-12-18,431.99174
1969-12-19,431.99174
1969-12-20,431.99174
1969-12-21,431.99174
1969-12-22,539.99174
1969-12-23,432.99174
1969-12-24,486.99174
1969-12-25,486.99174
1969-12-26,432.99174
1969-12-27,432.99174
1969-12-28,432.99174
1969-12-29,433.99174
1969-12-30,338.99504
1969-12-31,406.99835
1970-01-01,407.99835
1970-01-02,406.99835
1970-01-03,447.99504
1970-01-04,433.99174
1970-01-05,433.99174
1970-01-06,433.99174
1970-01-07,378.99174
1970-01-08,379.99174
1970-01-09,433.99174
1970-01-10,434.99174
1970-01-11,488.99174
1970-01-12,434.99174
1970-01-13,448.99504